This demonstration page uses our WeatherBlox Daily Observations layout. Learn more.

Left ArrowRight Arrow

41.86663, -103.66717

Hourly Observations for April 18, 2016

Temp ( °F °C ) Dew Point ( °F °C ) Humidity (%) Winds ( mph kmh ) Pressure ( in mb ) Visibility ( mi km ) Precip ( " mm )
12:53 am 00:53 Cloudy 37 2.8 33 0.6 86 86 NW 7 11 30.38 1029 10 16 N/A
1:09 am 01:09 Cloudy 37 2.8 33 0.6 86 86 NW 7 11 30.42 1030 10 16 N/A
1:30 am 01:30 Cloudy 37 3 32 undefined 81 81 NW 7 11 30.42 1030 10 16 N/A
1:53 am 01:53 Cloudy 37 2.8 32 undefined 82 82 N 3 6 30.37 1028 10 16 N/A
2:53 am 02:53 Cloudy 37 2.8 32 undefined 82 82 NNW 9 15 30.35 1028 10 16 N/A
3:33 am 03:33 Cloudy 36 2.2 31 -0.6 82 82 NW 8 13 30.39 1029 10 16 N/A
3:53 am 03:53 Mostly Cloudy 35 1.7 32 undefined 89 89 NW 6 9 30.34 1027 10 16 N/A
4:53 am 04:53 Cloudy 35 1.7 32 undefined 89 89 WNW 6 9 30.34 1027 10 16 N/A
5:53 am 05:53 Cloudy 35 1.7 32 undefined 89 89 N 5 7 30.35 1028 10 16 N/A
6:53 am 06:53 Cloudy 35 1.7 32 undefined 89 89 NNW 6 9 30.34 1027 10 16 N/A
7:22 am 07:22 Partly Cloudy 37 3 32 undefined 81 81 NW 7 11 30.36 1028 10 16 N/A
7:39 am 07:39 Mostly Cloudy 37 2.8 32 undefined 82 82 NNW 8 13 30.39 1029 10 16 N/A
7:53 am 07:53 Cloudy 38 3.3 33 0.6 83 83 N 8 13 30.34 1027 10 16 N/A
8:53 am 08:53 Cloudy 40 4.4 32 undefined 73 73 NNW 9 15 30.35 1028 10 16 N/A
9:53 am 09:53 Cloudy 40 4.4 32 undefined 73 73 NNW 10 17 30.34 1027 10 16 N/A
10:53 am 10:53 Cloudy 43 6.1 33 0.6 68 68 NW 10 17 30.32 1027 10 16 N/A
11:17 am 11:17 Cloudy 43 6.1 34 1.1 71 71 NNW 9 15 30.33 1027 10 16 N/A
11:53 am 11:53 Cloudy 44 6.7 33 0.6 65 65 NW 9 15 30.30 1026 10 16 N/A
12:53 pm 12:53 Cloudy 45 7.2 33 0.6 63 63 NNW 12 19 30.29 1026 10 16 N/A
1:53 pm 13:53 Cloudy 45 7.2 34 1.1 66 66 NNW 12 19 30.27 1025 10 16 N/A
2:11 pm 14:11 Cloudy 46 7.8 34 1.1 63 63 NW 12 19 30.24 1024 10 16 N/A
2:53 pm 14:53 Cloudy 46 7.8 34 1.1 63 63 NW 8 13 30.25 1025 10 16 N/A
3:42 pm 15:42 Cloudy 48 9 36 2 62 62 NW 10 17 30.18 1022 10 16 N/A
3:53 pm 15:53 Cloudy 49 9.4 35 1.7 59 59 NW 10 17 30.23 1024 10 16 N/A
4:53 pm 16:53 Cloudy 49 9.4 35 1.7 59 59 NW 9 15 30.22 1023 10 16 N/A
5:53 pm 17:53 Cloudy 48 8.9 35 1.7 61 61 NW 7 11 30.21 1023 10 16 N/A
6:53 pm 18:53 Cloudy 48 8.9 35 1.7 61 61 NNW 8 13 30.21 1023 10 16 N/A
7:53 pm 19:53 Cloudy 46 7.8 37 2.8 71 71 N 7 11 30.22 1023 10 16 N/A
8:53 pm 20:53 Cloudy 45 7.2 37 2.8 74 74 N 5 7 30.24 1024 10 16 N/A
9:53 pm 21:53 Cloudy 43 6.1 38 3.3 82 82 NW 6 9 30.24 1024 10 16 N/A
10:53 pm 22:53 Mostly Cloudy 40 4.4 37 2.8 89 89 WNW 5 7 30.24 1024 10 16 N/A
11:53 pm 23:53 Cloudy 39 3.9 37 2.8 93 93 NW 3 6 30.22 1023 10 16 N/A

Powered by AerisWeather